This demonstration page uses our WeatherBlox Daily Observations layout. Learn more.

Left ArrowRight Arrow

34.16533, -84.80231

Hourly Observations for August 12, 2020

Temp ( °F °C ) Dew Point ( °F °C ) Humidity (%) Winds ( mph kmh ) Pressure ( in mb ) Visibility ( mi km ) Precip ( " mm )
12:53 am 00:53 Clear 75 23.9 72 22.2 90 90 Calm 29.98 1015 9 14 0.00 0.00
1:53 am 01:53 Clear 75 23.9 72 22.2 90 90 Calm 29.98 1015 9 14 0.00 0.00
2:53 am 02:53 Mostly Cloudy 75 23.9 73 22.8 94 94 Calm 29.97 1015 7 11 0.00 0.00
3:53 am 03:53 Mostly Clear 75 23.9 73 22.8 94 94 Calm 29.97 1015 8 13 0.00 0.00
4:53 am 04:53 Clear 75 23.9 72 22.2 90 90 Calm 29.97 1015 9 14 0.00 0.00
5:53 am 05:53 Clear with Mist and Fog 73 22.8 70 21.1 90 90 Calm 29.97 1015 6 10 0.00 0.00
6:53 am 06:53 Clear with Mist and Fog 74 23.3 71 21.7 91 91 Calm 29.98 1015 6 10 0.00 0.00
7:53 am 07:53 Sunny 76 24.4 72 22.2 88 88 Calm 30.01 1016 7 11 0.00 0.00
8:53 am 08:53 Sunny 79 26.1 73 22.8 82 82 Calm 30.02 1017 9 14 0.00 0.00
9:53 am 09:53 Sunny 82 27.8 73 22.8 74 74 Calm 30.02 1017 10 16 0.00 0.00
10:53 am 10:53 Sunny 86 30 75 23.9 70 70 Calm 30.01 1016 10 16 0.00 0.00
11:53 am 11:53 Sunny 89 31.7 74 23.3 61 61 Calm 30.01 1016 10 16 0.00 0.00
12:53 pm 12:53 Mostly Sunny 91 32.8 73 22.8 56 56 N 6 9 30.00 1016 10 16 0.00 0.00
1:53 pm 13:53 Sunny 93 33.9 71 21.7 49 49 Calm 29.98 1015 10 16 0.00 0.00
2:53 pm 14:53 Sunny 92 33.3 73 22.8 54 54 VRB 3 6 29.95 1014 10 16 0.00 0.00
3:53 pm 15:53 Sunny 92 33.3 73 22.8 54 54 Calm 29.93 1014 10 16 0.00 0.00
4:44 pm 16:44 Sunny with Nearby Thunderstorms 84 28.9 69 20.6 61 61 SSW 6 9 29.95 1014 10 16 0.00 0.00
4:53 pm 16:53 Sunny with Nearby Thunderstorms 84 28.9 69 20.6 61 61 VRB 3 6 29.95 1014 10 16 0.00 0.00
5:35 pm 17:35 Sunny 83 28.3 71 21.7 67 67 Calm 29.95 1014 10 16 0.00 0.00
5:53 pm 17:53 Sunny 84 28.9 72 22.2 67 67 Calm 29.95 1014 10 16 0.00 0.00
6:53 pm 18:53 Sunny 84 28.9 70 21.1 63 63 Calm 29.96 1015 10 16 0.00 0.00
7:53 pm 19:53 Sunny 82 27.8 70 21.1 67 67 Calm 29.96 1015 10 16 0.00 0.00
8:53 pm 20:53 Mostly Cloudy 79 26.1 71 21.7 77 77 Calm 29.97 1015 10 16 0.00 0.00
9:53 pm 21:53 Clear 78 25.6 71 21.7 79 79 Calm 29.98 1015 10 16 0.00 0.00
10:53 pm 22:53 Clear 78 25.6 71 21.7 79 79 Calm 29.99 1016 10 16 0.00 0.00
11:53 pm 23:53 Clear 77 25 72 22.2 85 85 Calm 29.99 1016 10 16 0.00 0.00

Powered by AerisWeather